Hourly Weather Kyuryag

Today, 27 October, Tuesday

Time Temperature Precipitation Wind Pressure Humidity
00:00 +9°C° 0 mm 0 mps 669 mmHg 72%
01:00 +9°C° 0 mm 0 mps 668 mmHg 72%
02:00 +9°C° 0 mm 0 mps 668 mmHg 71%
03:00 +9°C° 0 mm 0 mps 669 mmHg 72%
04:00 +9°C° 0 mm 0 mps 669 mmHg 72%
05:00 +9°C° 0 mm 0 mps 669 mmHg 72%
06:00 +9°C° 0 mm 0 mps 669 mmHg 72%
07:00 +11°C° 0 mm 1 mps 670 mmHg 72%
08:00 +11°C° 0 mm 1 mps 670 mmHg 72%
09:00 +12°C° 0 mm 1 mps 670 mmHg 72%
10:00 +13°C° 0 mm 2 mps 671 mmHg 72%
11:00 +13°C° 0 mm 2 mps 671 mmHg 72%
12:00 +14°C° 0 mm 2 mps 671 mmHg 72%
13:00 +13°C° 0 mm 2 mps 671 mmHg 74%
14:00 +13°C° 0 mm 2 mps 671 mmHg 77%
15:00 +13°C° 0 mm 2 mps 671 mmHg 79%
16:00 +12°C° 0 mm 2 mps 671 mmHg 82%
17:00 +10°C° 0 mm 2 mps 671 mmHg 86%
18:00 +10°C° 0 mm 1 mps 671 mmHg 89%
19:00 +10°C° 0 mm 1 mps 671 mmHg 87%
20:00 +10°C° 0 mm 1 mps 671 mmHg 86%
21:00 +10°C° 0 mm 1 mps 671 mmHg 84%
22:00 +10°C° 0 mm 1 mps 671 mmHg 82%
23:00 +9°C° 0 mm 1 mps 671 mmHg 80%

Tomorrow, 28 October, Wednesday

Time Temperature Precipitation Wind Pressure Humidity
00:00 +9°C° 0 mm 1 mps 671 mmHg 78%
01:00 +9°C° 0 mm 1 mps 671 mmHg 77%
02:00 +8°C° 0 mm 2 mps 671 mmHg 75%
03:00 +8°C° 0 mm 2 mps 671 mmHg 73%
04:00 +8°C° 0 mm 2 mps 671 mmHg 72%
05:00 +8°C° 0 mm 2 mps 671 mmHg 72%
06:00 +8°C° 0 mm 2 mps 671 mmHg 71%
07:00 +9°C° 0 mm 2 mps 671 mmHg 67%
08:00 +10°C° 0 mm 2 mps 672 mmHg 63%
09:00 +13°C° 0 mm 2 mps 672 mmHg 59%
10:00 +12°C° 0 mm 3 mps 672 mmHg 59%
11:00 +13°C° 0 mm 3 mps 672 mmHg 58%
12:00 +14°C° 0 mm 3 mps 672 mmHg 58%
13:00 +13°C° 0 mm 3 mps 671 mmHg 61%
14:00 +13°C° 0 mm 3 mps 671 mmHg 64%
15:00 +13°C° 0 mm 3 mps 671 mmHg 67%
16:00 +13°C° 0 mm 2 mps 671 mmHg 71%
17:00 +12°C° 0 mm 2 mps 670 mmHg 74%
18:00 +10°C° 0 mm 2 mps 670 mmHg 78%
19:00 +10°C° 0 mm 2 mps 670 mmHg 75%
20:00 +11°C° 0 mm 1 mps 670 mmHg 72%
21:00 +11°C° 0 mm 1 mps 670 mmHg 70%
22:00 +11°C° 0 mm 1 mps 670 mmHg 68%
23:00 +11°C° 0 mm 1 mps 669 mmHg 66%

Day after tomorrow, 29 October, Thursday

Time Temperature Precipitation Wind Pressure Humidity
00:00 +11°C° 0 mm 1 mps 669 mmHg 63%
01:00 +11°C° 0 mm 1 mps 669 mmHg 61%
02:00 +11°C° 0 mm 1 mps 668 mmHg 58%
03:00 +10°C° 0 mm 2 mps 668 mmHg 55%
04:00 +10°C° 0 mm 2 mps 668 mmHg 53%
05:00 +10°C° 0 mm 2 mps 668 mmHg 51%
06:00 +11°C° 0 mm 1 mps 669 mmHg 49%
07:00 +12°C° 0 mm 1 mps 669 mmHg 47%
08:00 +14°C° 0 mm 1 mps 669 mmHg 45%
09:00 +16°C° 0 mm 1 mps 670 mmHg 43%
10:00 +18°C° 0 mm 1 mps 670 mmHg 44%
11:00 +17°C° 0 mm 2 mps 670 mmHg 44%
12:00 +18°C° 0 mm 2 mps 670 mmHg 44%
13:00 +18°C° 0 mm 2 mps 670 mmHg 48%
14:00 +18°C° 0 mm 2 mps 669 mmHg 52%
15:00 +17°C° 0 mm 2 mps 669 mmHg 56%
16:00 +16°C° 0 mm 1 mps 669 mmHg 62%
17:00 +14°C° 0 mm 1 mps 668 mmHg 68%
18:00 +13°C° 0 mm 1 mps 668 mmHg 74%
19:00 +12°C° 0 mm 1 mps 668 mmHg 72%
20:00 +12°C° 0 mm 1 mps 668 mmHg 69%
21:00 +12°C° 0 mm 1 mps 668 mmHg 67%
22:00 +12°C° 0 mm 1 mps 668 mmHg 65%
23:00 +12°C° 0 mm 2 mps 667 mmHg 63%

30 October, Friday

Time Temperature Precipitation Wind Pressure Humidity
00:00 +12°C° 0 mm 2 mps 667 mmHg 61%
01:00 +12°C° 0 mm 2 mps 667 mmHg 60%
02:00 +12°C° 0 mm 2 mps 667 mmHg 58%
03:00 +12°C° 0 mm 2 mps 667 mmHg 57%
04:00 +12°C° 0 mm 2 mps 666 mmHg 57%
05:00 +12°C° 0 mm 2 mps 666 mmHg 57%
06:00 +12°C° 0 mm 2 mps 666 mmHg 57%
07:00 +14°C° 0 mm 2 mps 667 mmHg 55%
08:00 +15°C° 0 mm 1 mps 667 mmHg 53%
09:00 +18°C° 0 mm 1 mps 668 mmHg 51%
10:00 +19°C° 0 mm 1 mps 667 mmHg 50%
11:00 +18°C° 0 mm 2 mps 667 mmHg 49%
12:00 +19°C° 0 mm 2 mps 667 mmHg 48%
13:00 +18°C° 0 mm 2 mps 667 mmHg 54%
14:00 +18°C° 0 mm 2 mps 667 mmHg 60%
15:00 +17°C° 0 mm 2 mps 667 mmHg 66%
16:00 +16°C° 0 mm 2 mps 667 mmHg 70%
17:00 +15°C° 0 mm 1 mps 667 mmHg 74%
18:00 +13°C° 0 mm 1 mps 667 mmHg 79%
19:00 +13°C° 0 mm 1 mps 667 mmHg 76%
20:00 +13°C° 0 mm 1 mps 667 mmHg 74%
21:00 +13°C° 0 mm 1 mps 667 mmHg 72%
22:00 +12°C° 0 mm 1 mps 666 mmHg 70%
23:00 +12°C° 0 mm 1 mps 666 mmHg 67%

31 October, Saturday

Time Temperature Precipitation Wind Pressure Humidity
00:00 +12°C° 0 mm 1 mps 666 mmHg 65%
01:00 +12°C° 0 mm 1 mps 666 mmHg 64%
02:00 +12°C° 0 mm 1 mps 666 mmHg 63%
03:00 +12°C° 0 mm 1 mps 666 mmHg 63%
04:00 +12°C° 0 mm 1 mps 666 mmHg 63%
05:00 +12°C° 0 mm 1 mps 666 mmHg 64%
06:00 +12°C° 0 mm 1 mps 666 mmHg 65%
07:00 +13°C° 0 mm 1 mps 666 mmHg 61%
08:00 +15°C° 0 mm 1 mps 667 mmHg 57%
09:00 +18°C° 0 mm 1 mps 667 mmHg 53%
10:00 +18°C° 0 mm 1 mps 667 mmHg 50%
11:00 +18°C° 0 mm 2 mps 667 mmHg 48%
12:00 +19°C° 0 mm 2 mps 667 mmHg 45%
13:00 +19°C° 0 mm 2 mps 667 mmHg 49%
14:00 +18°C° 0 mm 2 mps 667 mmHg 52%
15:00 +18°C° 0 mm 2 mps 667 mmHg 55%
16:00 +18°C° 0 mm 1 mps 667 mmHg 59%
17:00 +15°C° 0 mm 1 mps 667 mmHg 62%
18:00 +14°C° 0 mm 1 mps 667 mmHg 66%
19:00 +14°C° 0 mm 1 mps 667 mmHg 66%
20:00 +14°C° 0 mm 1 mps 667 mmHg 65%
21:00 +13°C° 0 mm 1 mps 667 mmHg 65%
22:00 +13°C° 0 mm 1 mps 667 mmHg 64%
23:00 +13°C° 0 mm 1 mps 667 mmHg 63%

1 November, Sunday

Time Temperature Precipitation Wind Pressure Humidity
00:00 +13°C° 0 mm 1 mps 667 mmHg 61%
01:00 +13°C° 0 mm 1 mps 667 mmHg 61%
02:00 +13°C° 0 mm 1 mps 667 mmHg 61%
03:00 +13°C° 0 mm 1 mps 667 mmHg 60%
04:00 +13°C° 0 mm 1 mps 667 mmHg 60%
05:00 +12°C° 0 mm 1 mps 667 mmHg 60%
06:00 +12°C° 0 mm 1 mps 667 mmHg 59%
07:00 +14°C° 0 mm 1 mps 668 mmHg 57%
08:00 +16°C° 0 mm 1 mps 669 mmHg 54%
09:00 +18°C° 0 mm 1 mps 669 mmHg 52%
10:00 +19°C° 0 mm 1 mps 669 mmHg 50%
11:00 +19°C° 0 mm 2 mps 669 mmHg 49%
12:00 +19°C° 0 mm 2 mps 670 mmHg 48%
13:00 +19°C° 0 mm 2 mps 669 mmHg 52%
14:00 +18°C° 0 mm 2 mps 669 mmHg 56%
15:00 +18°C° 0 mm 2 mps 669 mmHg 60%
16:00 +18°C° 0 mm 1 mps 669 mmHg 64%
17:00 +15°C° 0 mm 1 mps 669 mmHg 69%
18:00 +13°C° 0 mm 0 mps 669 mmHg 73%
19:00 +13°C° 0 mm 0 mps 669 mmHg 70%
20:00 +14°C° 0 mm 1 mps 669 mmHg 67%
21:00 +14°C° 0 mm 1 mps 669 mmHg 64%
22:00 +13°C° 0 mm 1 mps 669 mmHg 62%
23:00 +13°C° 0 mm 1 mps 669 mmHg 59%
Show more

We Need Your Consent

Meteoprog and our Service Providers may store and access personal data such as cookies, device identifiers or other similar technologies on your device and process such data to personalise content and ads, as well as provide social media features and to analyse the traffic.

  • Store and/or access information on your device

    Cookies, device identifiers or other information can be stored or accessed on your device for the purposes indicated above.

  • Personalised ads and content, ad and content measurement, audience insights, and products development

    Ads and content can be personalised based on a profile. More data can be added to better personalise ads and content. Ad and content performance can be measured. Insights about the audience who saw the ads and content can be derived. Such data can be used to develop or improve user’s experience, systems and software.

By clicking ‘I Agree’ you will allow the use of indicated cookies, device identifiers, web beacons or other similar technologies. Your settings can be changed in the browser on your device.

For certain purposes, legitimate interests may be relied on, rather than consent. You can read more about this in our Privacy and Cookie Policy.